Miscellaneous Local Product
Issued by NWS North Platte, NE

Home | Current Version | Previous Version | Text Only | Print | Product List | Glossary On
Versions: 1 2 3 4 5 6 7 8 9 10 11 12 13 14 15 16 17 18 19 20 21 22 23 24 25 26 27 28 29 30 31 32 33 34 35 36 37 38 39 40 41 42 43 44 45 46 47 48 49 50
000
AXUS43 KLBF 260810
MISLBF


WESTERN AND NORTH CENTRAL NEBRASKA HOURLY WEATHER ROUNDUP
NATIONAL WEATHER SERVICE NORTH PLATTE NE
300 AM CDT TUE JUL 26 2016

NOTE: "FAIR" INDICATES FEW OR NO CLOUDS BELOW 12,000 FEET WITH NO
SIGNIFICANT WEATHER AND/OR OBSTRUCTIONS TO VISIBILITY.

NOTE: STATIONS NOT REPORTING VARIABLES SUCH AS SKY/WEATHER OR
PRESSURE ARE PROVIDED BY RAWS AND APRS NETWORKS AND ARE NOT UNDER
NATIONAL WEATHER SERVICE QUALITY CONTROL.

...OBSERVATIONS IN AND NEAR THE EASTERN PANHANDLE OF NEBRASKA...

CITY           SKY/WX    TMP DP  RH WIND       PRES   REMARKS
PINE RIDGE     CLEAR     74  64  71 S20G28    30.04F
CHADRON        CLEAR     76  61  59 S23G30    30.02F
ALLIANCE       CLEAR     64  61  90 E10       30.09F
SIDNEY         CLEAR     68  62  81 S14       30.13F
CRESCENT LAKE    N/A     66  64  92 S6          N/A
$$

...OBSERVATIONS IN NORTHERN NEBRASKA AND FAR SOUTHERN SOUTH DAKOTA...

CITY           SKY/WX    TMP DP  RH WIND       PRES   REMARKS
WINNER         FAIR      75  60  59 S16G23    30.04F
VALENTINE      CLEAR     72  61  68 S12G21    30.07F
THEDFORD       CLEAR     68  65  90 S6        30.11S
AINSWORTH      CLEAR     67  63  84 S9        30.10S
O`NEILL        CLEAR     67  61  81 S9        30.10S
ORD            CLEAR     66  61  84 E3        30.10F
BROKEN BOW     CLEAR     66  62  87 SE3       30.11F
VALENTINE NWR    N/A     68  62  82 S6G13       N/A
BUTTE            N/A     68  62  82 S8          N/A
HALSEY           N/A     69  61  77 SE7         N/A
EWING            N/A     62  60  95 CALM        N/A
$$

...OBSERVATIONS IN SOUTHWEST NEBRASKA AND FAR NORTHEAST COLORADO...

CITY           SKY/WX    TMP DP  RH WIND       PRES   REMARKS
WRAY           FAIR      68  63  83 SE5       30.14S
HOLYOKE          N/A     66  63  88 W6        30.13S
IMPERIAL       CLEAR     69  64  84 S12       30.11S
OGALLALA       CLEAR     69  64  82 SE6       30.11S
NORTH PLATTE   CLEAR     67  64  90 E6        30.11F
MCCOOK         CLEAR     69  63  81 E6        30.10F
LEXINGTON      CLEAR     67  61  80 SE3       30.12R
STAPLETON        N/A     65  63  93 CALM        N/A
GOTHENBURG       N/A     68  63  83 E3          N/A
CALLAWAY         N/A     66  63  89 S7          N/A
$$

...OBSERVATIONS IN CENTRAL LINCOLN COUNTY AREA...

CITY           SKY/WX    TMP DP  RH WIND       PRES   REMARKS
N.P. AIRPORT   CLEAR     67  64  90 E6        30.11F
N.P. DOWNTOWN    N/A     71  65  82 CALM        N/A
N.P. SOUTHEAST   N/A     70  65  83 CALM        N/A
N.P. HILLCREST   N/A     68  64  86 SE8         N/A
$$

...SOME OBSERVATIONS FROM AROUND THE REGION...

CITY           SKY/WX    TMP DP  RH WIND       PRES   REMARKS
DENVER         CLEAR     66  47  50 S9        30.14F
LARAMIE        CLOUDY    58  47  66 S10       30.28F
CHEYENNE       CLOUDY    61  54  77 W9        30.20F
SCOTTSBLUFF    CLEAR     68  61  78 NE8       30.07F
RAPID CITY     CLEAR     70  59  68 SE7       30.02F
BISMARCK       CLOUDY    72  69  90 NE9       29.95S
PIERRE         CLEAR     75  60  59 S14       29.97F
SIOUX FALLS    CLEAR     71  63  75 S7        30.08S
OMAHA          PTCLDY    67  64  90 N3        30.08F
GRAND ISLAND   CLEAR     66  62  87 S5        30.12S
KANSAS CITY    CLEAR     71  67  87 NE5       30.05F
WICHITA        CLOUDY    76  72  87 E6        30.04F
OKLAHOMA CITY  RAIN      73  71  93 S6        30.02F
DALLAS         CLOUDY    79  71  76 CALM      29.95R
AMARILLO       PTCLDY    70  59  68 CALM      30.14R
DODGE CITY     CLEAR     68  67  96 SE6       30.11S FOG
HAYS           PTCLDY    70  61  73 E6        30.10S
GOODLAND       PTCLDY    67  64  90 SE10      30.13S
$$




USA.gov is the U.S. government's official web portal to all federal, state and local government web resources and services.